Temp
75 77 77 76 76 75 75 74 74 74 74 74 74 74 74 75 75 74 75 74 74 75 74 74 75 75 74 75 73 74 74 74 74 74 74 73 73 73 73 73 73 73 72 73 73 73 72 73 73 73 73 74 73 73 76 79 79 78 77 76 74 74
75 76 75 76 76 75 75 75 75 75 75 74 75 75 75 75 75 74 74 74 73 74 75 75 75 76 74 74 74 74 74 74 74 74 73 73 73 73 73 73 72 72 72 72 73 72 72 73 73 73 73 73 72 74 76 77 76 78 76 74 73 73
74 73 74 74 76 76 75 76 76 76 75 75 76 76 76 75 72 75 74 72 71 73 75 75 75 77 76 75 74 74 74 74 74 74 73 73 73 73 73 73 73 73 72 72 72 72 74 74 72 73 73 72 73 75 77 77 76 75 75 74 73 74
72 73 72 73 75 74 75 75 76 76 75 75 75 77 76 70 72 72 72 71 70 72 74 73 77 78 77 74 73 74 74 73 74 73 73 73 73 73 73 73 73 73 72 73 73 74 78 77 74 72 72 73 74 77 78 76 77 76 75 76 74 74
73 71 73 73 74 74 75 75 75 75 76 76 76 76 72 68 69 71 70 69 71 72 72 73 73 74 72 73 73 73 73 73 73 73 73 73 72 73 72 73 73 72 72 74 75 76 77 75 76 74 74 75 76 75 75 71 72 75 74 72 71 73
73 72 73 74 74 75 75 74 74 75 75 75 75 74 70 69 69 70 69 69 70 70 71 71 71 71 71 70 70 69 70 70 72 73 73 70 69 71 72 73 73 74 73 75 76 75 76 73 74 77 76 75 72 71 72 72 73 73 73 71 71 73
72 72 74 75 74 75 75 74 75 74 74 74 73 73 71 70 70 70 69 70 69 69 70 71 71 71 70 69 69 69 69 70 71 70 71 70 71 72 72 71 71 71 71 73 76 77 77 74 72 71 69 68 67 69 69 69 71 74 73 72 72 73
74 74 73 75 75 75 75 74 74 74 74 75 73 73 71 71 71 70 70 70 71 70 70 71 71 70 70 70 69 70 71 71 70 71 70 70 69 69 69 69 69 69 69 71 73 77 78 70 70 71 70 70 71 71 69 70 70 74 73 72 72 72
75 77 73 74 74 75 74 74 73 72 73 74 74 73 72 72 71 71 71 72 73 70 72 72 71 71 71 69 70 70 69 71 71 72 71 70 70 69 68 68 68 67 68 69 72 75 77 76 68 70 70 71 71 71 70 70 69 74 74 72 71 71
76 76 73 74 74 74 72 72 72 72 73 74 73 73 73 72 72 72 71 73 74 73 71 72 72 73 71 67 68 70 70 71 72 72 71 70 70 69 68 68 68 67 69 70 70 75 75 72 73 69 72 73 71 70 70 71 70 70 73 72 71 70
75 73 75 73 72 73 74 72 74 73 74 74 74 74 75 74 74 73 72 74 75 74 73 71 71 69 69 69 68 69 69 72 73 72 72 71 71 69 68 69 68 67 67 68 70 74 74 68 68 69 73 72 70 71 70 70 70 70 71 71 71 70
73 72 72 73 72 74 75 74 75 73 74 74 75 75 75 75 73 72 72 73 72 73 73 71 72 70 68 68 68 68 69 70 71 72 72 71 71 70 69 69 69 69 69 70 72 73 71 66 65 67 70 72 73 73 72 72 72 70 69 70 71 71
72 70 71 72 72 75 75 76 73 72 73 74 75 75 74 74 72 71 71 72 73 71 70 72 72 72 71 66 68 68 69 70 71 73 72 72 72 70 69 68 67 68 69 71 73 70 69 66 64 64 69 74 73 75 76 73 70 70 68 68 70 72
72 70 69 71 72 75 76 75 72 73 74 74 74 73 72 73 72 71 72 72 72 71 70 71 73 71 71 70 69 68 69 70 71 72 72 71 70 70 68 68 68 68 69 69 72 70 65 65 66 66 66 69 71 70 72 71 70 69 67 68 69 71
76 74 71 70 73 75 75 75 74 74 73 72 71 71 72 73 72 71 71 70 71 70 70 71 72 71 72 68 68 68 69 69 71 72 72 71 71 70 68 68 68 68 68 67 68 71 68 65 66 66 67 69 70 73 72 69 66 67 68 70 70 68
74 74 73 72 73 73 72 71 72 72 71 71 70 71 70 71 71 71 69 70 72 71 68 71 70 71 70 68 68 68 68 67 69 72 72 71 71 70 67 67 68 69 68 67 66 65 65 64 64 66 68 68 69 70 69 70 70 67 68 69 69 66
72 72 72 72 72 71 70 70 70 71 71 70 69 69 70 71 72 72 70 69 71 70 70 70 71 71 70 70 69 69 69 69 68 70 70 71 71 70 68 68 67 69 69 66 65 65 65 64 65 67 66 66 68 68 68 69 71 72 73 72 71 68
71 71 71 71 70 69 69 69 69 70 71 72 72 73 73 75 73 75 74 72 73 72 72 70 71 71 70 71 69 69 68 68 68 69 69 70 70 70 69 68 67 68 68 65 64 65 64 63 65 66 65 66 67 67 68 69 71 72 71 70 72 68
69 69 69 69 68 68 68 68 68 70 70 72 73 74 74 75 75 75 75 75 76 74 72 72 71 71 69 70 69 67 67 68 67 68 69 68 70 70 68 67 67 67 68 66 64 65 64 63 67 68 68 67 67 67 67 69 70 70 71 72 72 69
68 69 68 68 67 66 67 66 67 69 71 72 76 77 77 78 77 76 77 76 76 74 73 71 71 71 71 69 68 67 67 69 65 66 67 67 68 68 67 66 66 66 66 66 65 64 66 65 66 65 64 66 66 67 71 70 70 71 71 71 71 66
66 68 67 66 66 65 66 64 68 69 73 77 78 77 78 77 77 76 77 78 76 75 72 72 72 72 70 69 69 68 67 68 69 67 65 67 68 68 68 67 65 65 65 64 64 66 66 66 65 63 65 64 65 66 69 69 68 67 70 71 71 69
66 66 66 67 65 67 68 68 68 74 77 77 78 77 75 75 76 77 76 76 76 75 74 73 73 72 72 70 68 68 68 67 67 66 66 68 69 68 68 66 66 64 65 63 64 66 65 66 62 62 61 62 64 66 66 67 68 72 71 72 71 70
63 64 65 67 68 67 71 68 74 75 76 76 78 77 79 78 78 77 75 76 75 75 73 73 73 73 71 70 68 69 67 67 68 67 67 68 68 68 67 66 65 63 62 64 63 64 65 65 63 64 63 61 60 59 63 64 67 70 70 71 71 73
64 65 65 65 66 72 74 76 75 74 74 75 74 75 75 76 77 78 76 77 76 75 73 72 71 72 71 69 69 68 67 67 67 68 68 67 67 67 67 65 64 64 64 61 63 62 65 66 65 64 58 59 60 60 56 58 62 67 71 71 72 73
64 64 64 64 64 65 74 74 75 74 75 74 74 74 74 73 75 75 76 75 75 76 76 76 73 74 75 71 71 70 69 68 68 69 68 67 67 68 67 67 65 65 64 62 60 62 63 65 66 65 63 61 57 56 59 60 62 64 68 70 73 74
65 65 65 65 65 66 73 72 71 70 69 70 70 71 70 70 72 73 75 75 77 78 77 75 76 75 73 71 70 70 70 70 69 67 67 67 67 68 69 69 68 66 64 64 62 61 61 64 64 66 66 66 64 60 60 62 62 56 66 68 71 76
65 65 66 66 66 67 72 72 72 73 73 71 69 70 72 73 72 73 74 73 75 75 77 75 75 75 74 74 73 71 70 70 70 68 68 67 67 68 70 71 70 65 65 65 64 61 62 62 63 64 67 67 67 67 67 62 58 61 58 63 68 68
66 66 67 67 68 70 72 71 71 71 72 71 70 70 71 71 73 73 73 73 73 73 76 76 75 75 75 75 74 74 73 72 72 71 70 69 68 70 70 71 71 69 67 65 66 65 64 63 62 63 64 65 65 68 67 66 65 62 61 58 60 67
67 67 67 68 70 72 72 72 71 71 70 72 72 72 72 73 72 72 72 72 72 75 74 74 75 74 74 75 74 73 74 73 72 73 75 74 72 74 72 70 69 69 69 69 69 66 65 64 66 63 63 63 66 65 65 66 65 63 61 60 59 60
69 70 70 70 72 73 72 72 72 71 71 70 72 72 72 71 71 72 70 71 71 71 72 72 73 74 75 76 75 75 74 73 72 73 73 74 73 72 71 71 70 70 70 69 68 68 65 66 66 66 66 64 62 64 63 61 61 61 63 65 60 61
70 72 72 72 73 72 73 73 72 72 71 71 71 71 69 70 70 71 70 70 70 71 72 71 72 72 72 74 72 73 73 73 72 72 72 73 71 71 69 69 71 71 70 69 68 68 68 69 67 66 66 63 63 64 61 59 60 61 62 61 62 61
70 71 72 73 73 73 73 72 72 72 72 71 72 71 70 70 71 71 70 70 70 70 71 71 71 70 71 72 72 72 72 72 71 71 72 72 72 71 70 70 70 70 70 69 70 69 68 67 67 65 66 66 66 65 64 64 65 64 63 63 63 62
68 70 72 72 72 72 72 72 72 72 72 71 72 72 71 70 72 70 70 70 70 69 70 70 70 70 70 72 71 71 71 71 70 70 71 71 71 72 71 69 69 69 69 68 67 67 66 66 68 66 66 67 69 69 67 68 69 68 67 67 65 62
68 70 71 72 72 72 72 72 72 72 71 71 71 71 71 71 72 71 71 70 71 70 70 70 70 69 71 73 71 71 71 71 71 71 71 71 71 71 71 69 68 68 68 68 68 67 67 67 68 69 68 66 67 67 67 68 67 69 67 67 65 63
68 69 70 70 71 72 72 72 72 72 72 72 71 71 72 72 72 71 71 71 71 71 70 70 70 70 71 71 71 71 71 70 71 70 71 71 72 70 69 71 71 69 69 69 69 68 67 67 67 68 67 66 66 66 66 66 66 67 70 66 68 65
68 69 69 70 71 71 72 72 72 72 72 72 72 72 71 71 71 71 71 71 71 70 70 69 70 70 71 70 70 70 71 70 71 71 71 72 71 70 69 68 68 68 68 72 67 67 66 66 66 66 66 67 66 66 67 68 69 67 67 69 67 67
68 68 69 70 70 71 71 71 71 72 72 71 72 71 70 70 70 71 71 71 70 70 69 69 69 70 69 70 70 69 69 69 70 70 70 70 70 69 69 68 68 67 66 67 67 67 66 65 66 66 66 66 66 66 66 67 67 67 67 67 68 66
MSLP
1013.22 1013.42 1013.42 1013.51 1013.62 1013.91 1014.22 1014.42 1014.66 1014.91 1015.03 1015.18 1015.47 1015.71 1015.91 1016.10 1016.27 1016.34 1016.30 1016.27 1016.30 1016.47 1016.62 1016.83 1016.91 1016.95 1017.07 1017.15 1017.27 1017.34 1017.42 1017.51 1017.59 1017.62 1017.66 1017.71 1017.74 1017.83 1017.86 1017.91 1017.91 1017.98 1018.15 1018.18 1018.18 1018.18 1018.10 1018.10 1018.10 1018.07 1018.03 1018.10 1018.10 1017.98 1017.71 1017.47 1017.42 1017.98 1018.27 1018.59 1018.86 1019.18
1013.66 1013.59 1013.47 1013.59 1013.71 1013.95 1014.22 1014.47 1014.74 1014.98 1015.18 1015.42 1015.62 1015.83 1015.95 1016.22 1016.47 1016.42 1016.27 1016.34 1016.47 1016.51 1016.66 1016.78 1016.83 1016.91 1017.03 1017.18 1017.27 1017.34 1017.42 1017.54 1017.66 1017.74 1017.78 1017.78 1017.83 1017.86 1017.91 1017.95 1017.95 1017.98 1018.15 1018.27 1018.22 1018.27 1018.18 1018.15 1018.15 1018.15 1018.15 1018.18 1018.18 1017.95 1017.74 1017.62 1017.74 1018.18 1018.51 1018.78 1019.03 1019.30
1013.74 1013.59 1013.54 1013.62 1013.66 1013.91 1014.22 1014.47 1014.74 1014.98 1015.22 1015.42 1015.59 1015.74 1015.98 1016.54 1016.71 1016.27 1016.15 1016.51 1016.59 1016.59 1016.62 1016.83 1016.91 1016.91 1016.98 1017.07 1017.27 1017.39 1017.51 1017.66 1017.83 1017.86 1017.86 1017.86 1017.86 1017.86 1017.91 1017.95 1017.98 1018.10 1018.22 1018.30 1018.34 1018.22 1018.03 1018.03 1018.10 1018.18 1018.22 1018.27 1018.15 1017.91 1017.83 1017.86 1018.07 1018.51 1018.78 1019.03 1019.27 1019.39
1013.59 1013.47 1013.62 1013.74 1013.66 1013.98 1014.27 1014.51 1014.74 1014.95 1015.18 1015.34 1015.54 1015.74 1016.18 1017.27 1016.83 1016.03 1016.15 1016.54 1016.62 1016.62 1016.71 1016.91 1016.98 1016.86 1016.95 1017.22 1017.42 1017.51 1017.66 1017.83 1017.86 1017.86 1017.86 1017.91 1017.86 1017.86 1017.91 1017.91 1018.03 1018.18 1018.27 1018.27 1018.18 1018.03 1017.78 1017.74 1017.95 1018.10 1018.22 1018.15 1018.07 1017.83 1017.83 1018.03 1018.18 1018.54 1018.86 1019.15 1019.42 1019.59
1013.34 1013.22 1013.54 1013.71 1013.86 1014.18 1014.34 1014.62 1014.78 1014.98 1015.18 1015.34 1015.54 1015.74 1016.66 1016.95 1015.95 1015.59 1016.15 1016.47 1016.51 1016.66 1016.86 1016.98 1017.07 1017.07 1017.27 1017.34 1017.42 1017.59 1017.74 1017.83 1017.86 1017.86 1017.83 1017.86 1017.91 1017.83 1017.86 1017.83 1017.83 1018.07 1018.18 1018.10 1018.03 1017.86 1017.54 1017.66 1017.66 1017.95 1017.98 1017.95 1017.86 1018.03 1018.15 1018.15 1018.42 1018.71 1019.03 1019.30 1019.54 1019.66
1013.07 1013.30 1013.51 1013.71 1013.95 1014.18 1014.42 1014.83 1014.95 1015.07 1015.22 1015.39 1015.51 1015.98 1016.42 1016.18 1015.91 1015.91 1016.39 1016.30 1016.47 1016.83 1016.95 1017.03 1017.22 1017.30 1017.39 1017.47 1017.62 1017.78 1017.86 1017.83 1017.74 1017.71 1017.71 1017.95 1017.98 1017.95 1017.86 1017.78 1017.83 1017.91 1017.91 1017.83 1017.78 1017.62 1017.47 1017.71 1017.91 1017.59 1017.62 1017.83 1018.47 1018.95 1018.59 1018.54 1018.51 1018.71 1018.98 1019.27 1019.51 1019.66
1013.15 1013.42 1013.66 1013.78 1014.07 1014.18 1014.42 1014.54 1014.71 1014.98 1015.18 1015.47 1015.59 1015.95 1016.27 1016.10 1016.18 1016.22 1016.34 1016.47 1016.74 1016.95 1017.03 1017.15 1017.39 1017.42 1017.59 1017.62 1017.78 1017.83 1017.91 1017.95 1017.95 1017.91 1017.86 1017.98 1018.10 1017.98 1017.86 1017.95 1018.03 1018.10 1018.10 1018.03 1017.83 1017.59 1017.39 1017.78 1017.95 1018.51 1018.74 1019.39 1019.39 1019.22 1018.95 1018.74 1018.78 1018.86 1019.03 1019.30 1019.54 1019.78
1013.10 1013.30 1013.74 1013.86 1013.98 1014.07 1014.18 1014.47 1014.62 1014.91 1015.07 1015.30 1015.66 1015.74 1016.07 1016.15 1016.27 1016.27 1016.54 1016.83 1016.91 1017.03 1017.18 1017.30 1017.47 1017.59 1017.74 1017.71 1017.78 1017.74 1017.74 1017.86 1017.98 1017.91 1017.83 1017.95 1018.10 1017.98 1017.98 1018.07 1018.18 1018.34 1018.22 1018.15 1018.07 1017.30 1017.30 1018.71 1018.83 1018.59 1019.18 1019.18 1019.07 1019.03 1018.78 1018.83 1018.86 1018.86 1019.15 1019.39 1019.66 1019.91
1012.74 1013.07 1013.54 1013.54 1013.74 1013.83 1014.10 1014.42 1014.74 1015.03 1015.30 1015.42 1015.51 1015.66 1015.91 1016.22 1016.39 1016.51 1016.71 1016.86 1016.91 1017.15 1017.22 1017.27 1017.47 1017.54 1017.59 1017.86 1017.83 1017.91 1017.86 1017.91 1017.98 1017.95 1017.95 1017.98 1017.98 1018.07 1018.07 1018.18 1018.39 1018.34 1018.27 1018.15 1017.86 1017.66 1017.42 1017.71 1018.71 1018.66 1018.66 1018.83 1018.86 1019.10 1019.07 1019.07 1019.03 1018.98 1019.15 1019.47 1019.71 1019.91
1012.59 1013.07 1013.47 1013.47 1013.54 1013.91 1014.30 1014.51 1014.86 1015.22 1015.18 1015.18 1015.42 1015.59 1015.83 1016.22 1016.51 1016.74 1016.98 1016.95 1016.83 1016.98 1017.15 1017.34 1017.47 1017.54 1017.74 1017.95 1017.83 1017.78 1017.98 1018.03 1018.03 1017.95 1017.91 1018.07 1018.03 1018.15 1018.27 1018.30 1018.47 1018.42 1018.30 1018.15 1018.10 1017.83 1017.47 1018.03 1018.59 1018.95 1018.54 1018.59 1018.95 1019.42 1019.30 1019.10 1019.22 1019.30 1019.30 1019.54 1019.86 1020.07
1012.51 1013.18 1013.39 1013.59 1013.83 1014.03 1014.22 1014.71 1014.91 1014.95 1014.95 1015.10 1015.30 1015.62 1015.86 1016.15 1016.42 1016.62 1016.74 1016.66 1016.66 1016.74 1016.95 1017.15 1017.39 1017.95 1018.51 1018.27 1018.39 1018.18 1018.03 1017.86 1017.95 1017.98 1017.91 1018.03 1017.98 1018.07 1018.10 1018.22 1018.39 1018.30 1018.22 1018.22 1018.03 1017.98 1018.10 1019.07 1018.98 1019.07 1018.78 1018.78 1018.95 1019.18 1019.42 1019.30 1019.34 1019.39 1019.47 1019.66 1019.95 1020.10
1012.71 1013.07 1013.18 1013.51 1014.03 1014.07 1014.27 1014.47 1014.51 1014.71 1015.03 1015.27 1015.42 1015.66 1015.86 1016.03 1016.27 1016.42 1016.47 1016.51 1016.62 1016.74 1016.86 1017.10 1017.30 1017.74 1018.03 1018.39 1018.54 1018.30 1018.30 1018.22 1018.03 1017.86 1017.91 1018.03 1018.15 1018.03 1018.03 1018.10 1018.18 1018.10 1018.07 1018.18 1018.07 1018.15 1018.47 1019.54 1019.54 1019.27 1019.42 1019.03 1018.98 1019.10 1019.27 1019.34 1019.51 1019.62 1019.66 1019.78 1019.98 1020.15
1012.95 1013.27 1013.34 1013.54 1014.07 1014.15 1014.34 1014.51 1014.78 1015.07 1015.22 1015.34 1015.47 1015.59 1015.86 1015.98 1016.18 1016.30 1016.34 1016.39 1016.51 1016.71 1016.91 1017.15 1017.22 1017.30 1017.83 1018.83 1018.47 1018.54 1018.22 1018.22 1017.98 1017.83 1017.86 1017.95 1017.98 1018.10 1018.18 1018.27 1018.27 1018.15 1018.18 1018.18 1018.15 1018.59 1019.10 1019.95 1019.86 1019.47 1019.39 1019.27 1019.03 1018.95 1019.03 1019.39 1019.74 1019.95 1020.07 1020.10 1020.07 1020.22
1013.42 1013.98 1014.34 1013.78 1013.86 1014.03 1014.30 1014.62 1014.95 1015.10 1015.34 1015.47 1015.59 1015.71 1015.83 1015.78 1016.03 1016.30 1016.30 1016.30 1016.42 1016.74 1017.10 1017.18 1017.22 1017.39 1017.62 1017.78 1018.03 1018.34 1018.34 1018.15 1017.95 1017.86 1017.91 1018.03 1018.10 1018.15 1018.30 1018.34 1018.34 1018.34 1018.47 1018.51 1018.54 1018.83 1020.27 1020.51 1020.10 1019.91 1019.74 1019.42 1019.18 1019.22 1019.30 1019.86 1020.10 1020.18 1020.30 1020.30 1020.18 1020.18
1012.54 1013.30 1014.07 1014.18 1013.95 1013.95 1014.15 1014.54 1014.91 1015.22 1015.42 1015.51 1015.59 1015.59 1015.62 1015.71 1015.98 1016.22 1016.30 1016.47 1016.54 1016.74 1017.07 1017.15 1017.22 1017.39 1017.54 1017.86 1017.91 1017.91 1018.22 1018.03 1017.86 1017.86 1018.07 1018.10 1018.10 1018.22 1018.39 1018.54 1018.47 1018.59 1018.71 1018.74 1019.10 1019.27 1020.42 1020.51 1020.10 1020.15 1019.83 1019.42 1019.47 1019.34 1019.47 1020.18 1020.59 1020.10 1020.18 1020.34 1020.30 1020.74
1012.78 1013.15 1013.54 1013.91 1013.98 1014.07 1014.22 1014.42 1014.62 1014.86 1015.15 1015.27 1015.39 1015.51 1015.71 1015.78 1015.86 1016.15 1016.39 1016.59 1016.54 1016.74 1017.03 1017.10 1017.47 1017.42 1017.78 1017.91 1018.10 1017.95 1018.03 1017.95 1017.86 1017.91 1018.15 1018.22 1018.15 1018.34 1018.62 1018.66 1018.51 1018.66 1019.03 1019.10 1019.34 1019.83 1020.54 1021.18 1020.27 1020.27 1019.78 1019.62 1019.62 1019.62 1019.71 1019.86 1020.39 1020.59 1020.03 1019.98 1020.42 1020.95
1013.03 1013.30 1013.59 1013.86 1014.07 1014.27 1014.42 1014.54 1014.59 1014.86 1015.18 1015.30 1015.42 1015.47 1015.62 1015.66 1015.59 1015.71 1016.03 1016.34 1016.39 1016.59 1016.91 1017.10 1017.39 1017.47 1017.59 1017.83 1018.03 1017.78 1017.95 1018.10 1018.22 1018.27 1018.34 1018.30 1018.34 1018.34 1018.62 1018.66 1018.62 1018.62 1018.91 1019.30 1019.54 1020.22 1020.83 1021.22 1020.62 1020.42 1020.18 1019.86 1019.71 1019.78 1019.91 1019.95 1019.91 1019.98 1020.03 1020.22 1020.22 1021.03
1013.27 1013.27 1013.54 1013.91 1014.10 1014.30 1014.51 1014.59 1014.78 1014.95 1014.95 1015.15 1015.22 1015.15 1015.18 1015.27 1015.47 1015.54 1015.78 1016.18 1016.30 1016.54 1016.78 1017.07 1017.30 1017.39 1017.51 1017.47 1017.54 1017.78 1018.07 1018.42 1018.51 1018.51 1018.42 1018.42 1018.51 1018.47 1018.59 1018.66 1018.83 1018.83 1018.86 1019.15 1019.71 1020.34 1021.07 1021.27 1021.18 1020.71 1020.27 1020.18 1020.07 1019.91 1019.91 1019.86 1019.71 1019.74 1019.95 1020.10 1020.03 1020.91
1013.42 1013.59 1013.86 1013.98 1013.95 1014.10 1014.39 1014.59 1014.71 1014.78 1015.03 1015.03 1014.98 1014.98 1015.18 1015.42 1015.47 1015.51 1015.83 1016.03 1016.15 1016.47 1016.86 1017.07 1017.22 1017.27 1017.47 1017.42 1017.54 1018.07 1018.30 1018.34 1018.78 1018.66 1018.51 1018.54 1018.59 1018.62 1018.78 1018.86 1018.95 1019.10 1019.03 1019.22 1019.66 1020.39 1020.91 1021.10 1020.78 1020.15 1020.22 1020.34 1020.15 1020.03 1019.78 1019.71 1019.66 1019.83 1019.98 1020.03 1020.15 1021.10
1013.66 1013.74 1013.95 1014.18 1013.95 1014.30 1014.66 1014.78 1015.03 1015.22 1015.42 1015.34 1015.03 1014.98 1015.03 1015.10 1015.15 1015.51 1015.71 1015.91 1016.10 1016.42 1016.74 1016.98 1017.18 1017.15 1017.27 1017.42 1017.59 1017.83 1018.03 1018.30 1018.91 1018.34 1018.42 1018.47 1018.51 1018.71 1018.86 1018.98 1019.07 1019.18 1019.39 1019.62 1019.91 1020.39 1020.62 1021.07 1020.59 1020.51 1020.39 1020.27 1020.27 1020.18 1020.03 1019.86 1019.98 1020.07 1019.98 1020.03 1020.27 1020.98
1014.27 1014.18 1014.10 1014.07 1013.86 1013.71 1014.27 1014.62 1015.22 1015.34 1015.27 1014.86 1014.74 1014.83 1014.98 1015.15 1015.42 1015.62 1015.71 1015.95 1016.15 1016.30 1016.78 1016.98 1017.07 1017.10 1017.27 1017.30 1017.39 1017.59 1018.03 1018.30 1018.34 1018.15 1018.39 1018.39 1018.30 1018.59 1018.59 1018.71 1019.03 1019.27 1019.54 1019.83 1020.10 1020.03 1020.07 1020.51 1020.74 1020.91 1020.62 1020.54 1020.39 1020.30 1020.18 1020.18 1020.34 1020.54 1020.51 1020.34 1020.10 1020.74
1015.86 1015.62 1015.18 1014.74 1014.42 1014.34 1014.62 1014.78 1015.54 1015.03 1014.54 1014.71 1014.83 1015.07 1015.42 1015.42 1015.62 1015.78 1015.91 1016.07 1016.22 1016.39 1016.54 1016.78 1016.95 1017.07 1017.18 1017.27 1017.39 1017.47 1017.83 1018.27 1018.22 1017.98 1018.39 1018.27 1018.30 1018.47 1018.71 1018.83 1018.98 1019.51 1019.66 1019.86 1020.03 1019.91 1020.22 1020.42 1020.95 1021.07 1021.30 1021.34 1021.03 1020.62 1020.47 1020.42 1020.42 1020.18 1020.18 1020.10 1020.22 1020.34
1016.18 1016.42 1016.47 1016.59 1016.30 1015.91 1015.34 1016.10 1015.03 1014.39 1014.59 1014.91 1014.66 1014.74 1015.03 1015.22 1015.39 1015.83 1015.98 1016.15 1016.27 1016.39 1016.59 1016.83 1016.95 1017.18 1017.39 1017.39 1017.34 1017.51 1017.86 1018.03 1018.15 1018.07 1018.22 1018.22 1018.30 1018.54 1018.71 1018.98 1019.18 1019.47 1019.83 1019.71 1019.71 1019.83 1020.15 1020.34 1020.78 1020.86 1020.98 1021.34 1021.78 1021.71 1021.15 1020.83 1020.54 1020.34 1020.39 1020.27 1020.18 1020.30
1014.91 1014.95 1015.03 1015.10 1015.78 1014.91 1014.34 1014.18 1014.10 1014.39 1014.59 1014.83 1015.30 1015.18 1015.22 1015.27 1015.42 1015.62 1016.03 1016.03 1016.18 1016.27 1016.74 1016.98 1017.15 1017.34 1017.54 1017.42 1017.47 1017.62 1017.74 1017.95 1018.27 1018.15 1018.10 1018.22 1018.30 1018.51 1018.62 1018.91 1019.18 1019.39 1019.42 1020.10 1019.98 1020.15 1019.95 1020.22 1020.51 1020.86 1021.95 1021.83 1021.66 1021.54 1022.27 1021.95 1021.42 1020.78 1020.27 1020.30 1020.39 1020.30
1014.59 1014.86 1014.78 1014.59 1014.27 1014.74 1014.10 1014.34 1014.47 1014.66 1014.74 1015.03 1015.10 1015.34 1015.62 1015.86 1015.74 1015.78 1015.91 1016.10 1016.22 1016.15 1016.27 1016.59 1017.15 1017.07 1017.15 1017.62 1017.59 1017.62 1017.66 1017.78 1018.07 1018.10 1018.10 1018.30 1018.42 1018.42 1018.59 1018.71 1019.07 1019.30 1019.47 1019.86 1020.18 1019.98 1020.15 1020.51 1020.51 1020.42 1020.78 1021.34 1021.86 1022.15 1021.83 1021.78 1021.47 1021.30 1020.54 1020.66 1020.59 1020.47
1013.95 1013.98 1014.30 1014.03 1013.66 1014.39 1014.42 1014.62 1014.95 1015.30 1015.74 1015.74 1015.95 1015.98 1016.27 1016.27 1016.15 1016.18 1016.27 1016.03 1016.03 1016.15 1016.39 1016.51 1016.62 1016.95 1017.22 1017.47 1017.51 1017.42 1017.47 1017.62 1017.78 1018.07 1018.18 1018.30 1018.54 1018.54 1018.51 1018.62 1018.91 1019.10 1019.54 1019.83 1020.10 1020.34 1020.83 1020.59 1020.47 1020.30 1020.34 1020.54 1020.83 1021.39 1021.47 1021.34 1021.42 1022.66 1020.91 1020.59 1020.71 1020.62
1013.47 1013.51 1013.54 1013.59 1013.42 1013.83 1014.15 1014.39 1014.66 1014.95 1015.18 1015.62 1016.07 1015.98 1015.66 1015.62 1015.83 1015.98 1015.95 1016.22 1016.34 1016.22 1016.34 1016.62 1016.71 1016.78 1016.91 1017.03 1017.27 1017.34 1017.39 1017.42 1017.47 1017.71 1017.91 1018.07 1018.18 1018.30 1018.39 1018.47 1018.74 1019.22 1019.42 1019.91 1020.42 1020.98 1020.86 1020.83 1020.71 1020.54 1020.34 1020.34 1020.27 1020.15 1020.10 1021.03 1021.95 1021.71 1022.39 1021.59 1021.27 1021.47
1013.42 1013.54 1013.59 1013.39 1013.34 1013.42 1013.86 1014.22 1014.59 1014.86 1015.03 1015.42 1015.71 1015.86 1015.78 1015.78 1015.71 1015.83 1016.07 1016.15 1016.18 1016.30 1016.30 1016.51 1016.66 1016.74 1016.74 1016.91 1016.98 1017.03 1017.03 1017.10 1017.30 1017.34 1017.54 1017.83 1017.98 1017.98 1018.22 1018.34 1018.42 1019.03 1019.34 1019.91 1020.18 1020.39 1020.51 1020.27 1020.62 1020.54 1020.39 1020.51 1020.42 1020.07 1020.15 1020.51 1020.71 1021.42 1021.78 1022.59 1022.66 1021.91
1013.30 1013.30 1013.30 1013.07 1013.10 1013.22 1013.51 1013.95 1014.42 1014.74 1015.03 1015.07 1015.22 1015.39 1015.47 1015.62 1015.91 1015.91 1016.22 1016.22 1016.27 1016.34 1016.51 1016.59 1016.62 1016.78 1016.83 1016.86 1016.95 1017.07 1017.03 1017.07 1017.07 1017.07 1016.98 1017.15 1017.34 1017.51 1017.74 1018.22 1018.42 1018.62 1018.95 1019.15 1019.22 1019.54 1019.83 1020.07 1020.03 1020.34 1020.59 1020.66 1020.47 1020.54 1020.51 1020.74 1020.95 1021.10 1021.59 1022.30 1022.83 1022.86
1013.30 1013.10 1012.98 1013.18 1013.10 1013.18 1013.51 1013.83 1014.30 1014.54 1014.74 1014.91 1014.95 1015.18 1015.47 1015.86 1015.98 1016.03 1016.39 1016.39 1016.39 1016.54 1016.71 1016.83 1016.74 1016.71 1016.74 1016.78 1016.95 1016.95 1017.07 1017.22 1017.22 1017.22 1017.22 1017.18 1017.39 1017.71 1017.95 1018.27 1018.42 1018.51 1018.62 1018.98 1019.07 1019.30 1019.51 1019.74 1019.83 1020.18 1020.27 1020.51 1020.78 1020.78 1021.03 1021.27 1021.39 1021.34 1021.42 1021.39 1022.51 1022.98
1013.10 1012.95 1012.98 1013.15 1012.98 1013.27 1013.47 1013.78 1014.15 1014.30 1014.51 1014.83 1014.98 1015.30 1015.71 1015.91 1015.95 1016.07 1016.34 1016.42 1016.47 1016.59 1016.66 1016.91 1016.95 1016.91 1016.91 1016.95 1017.15 1017.18 1017.22 1017.27 1017.39 1017.39 1017.34 1017.47 1017.71 1018.07 1018.18 1018.34 1018.30 1018.47 1018.66 1018.95 1019.10 1019.18 1019.39 1019.42 1020.07 1020.42 1020.34 1020.39 1020.59 1020.71 1020.95 1021.22 1021.27 1021.30 1021.47 1021.66 1021.91 1022.42
1012.98 1012.86 1012.83 1012.86 1012.95 1013.18 1013.42 1013.74 1013.91 1014.10 1014.47 1014.66 1014.91 1015.22 1015.59 1015.86 1015.95 1016.10 1016.27 1016.42 1016.47 1016.66 1016.86 1016.98 1017.03 1017.15 1017.22 1017.18 1017.27 1017.34 1017.22 1017.30 1017.51 1017.59 1017.66 1017.62 1017.74 1017.98 1018.18 1018.30 1018.42 1018.62 1018.83 1018.95 1019.03 1019.18 1019.39 1019.66 1019.83 1019.98 1020.18 1020.18 1020.18 1020.18 1020.34 1020.66 1020.62 1020.71 1021.10 1020.98 1021.18 1021.86
1012.66 1012.59 1012.54 1012.51 1012.74 1012.98 1013.30 1013.59 1013.78 1014.03 1014.34 1014.59 1014.86 1015.10 1015.39 1015.71 1015.74 1015.98 1016.10 1016.30 1016.54 1016.83 1016.98 1017.18 1017.22 1017.34 1017.42 1017.34 1017.39 1017.47 1017.47 1017.62 1017.78 1017.78 1017.83 1017.86 1017.95 1017.95 1018.18 1018.47 1018.71 1018.91 1019.03 1019.27 1019.39 1019.62 1019.71 1019.74 1019.71 1019.86 1019.95 1019.83 1019.86 1019.98 1020.18 1020.07 1020.10 1020.34 1020.39 1020.22 1020.42 1021.22
1012.59 1012.54 1012.54 1012.66 1012.83 1013.10 1013.34 1013.47 1013.62 1013.91 1014.22 1014.59 1014.98 1015.07 1015.30 1015.54 1015.66 1015.78 1015.95 1016.27 1016.47 1016.66 1016.91 1017.15 1017.30 1017.42 1017.30 1017.27 1017.34 1017.47 1017.59 1017.66 1017.78 1017.91 1017.95 1017.98 1018.07 1018.15 1018.42 1018.74 1018.86 1019.10 1019.18 1019.22 1019.34 1019.51 1019.59 1019.66 1019.66 1019.62 1019.62 1019.78 1019.71 1019.59 1019.47 1019.34 1019.30 1019.39 1019.66 1019.95 1020.39 1020.83
1013.03 1012.95 1012.71 1012.74 1012.91 1013.15 1013.39 1013.59 1013.83 1013.98 1014.27 1014.54 1014.91 1015.03 1015.18 1015.30 1015.51 1015.74 1015.95 1016.22 1016.39 1016.54 1016.83 1017.03 1017.22 1017.30 1017.27 1017.39 1017.51 1017.59 1017.71 1017.86 1017.91 1018.03 1018.10 1018.18 1018.22 1018.34 1018.47 1018.62 1018.78 1018.95 1019.07 1019.15 1019.30 1019.47 1019.62 1019.66 1019.71 1019.62 1019.62 1019.66 1019.62 1019.54 1019.54 1019.39 1019.54 1019.71 1019.39 1019.54 1019.95 1020.42
1013.07 1013.03 1012.78 1012.83 1013.03 1013.15 1013.34 1013.51 1013.83 1014.18 1014.42 1014.62 1014.78 1014.86 1015.10 1015.27 1015.39 1015.59 1015.91 1016.15 1016.39 1016.59 1016.78 1017.03 1017.15 1017.30 1017.39 1017.47 1017.66 1017.83 1017.86 1017.98 1017.98 1018.07 1018.10 1018.18 1018.30 1018.51 1018.62 1018.83 1018.95 1019.07 1019.22 1019.15 1019.47 1019.66 1019.78 1019.74 1019.78 1019.74 1019.78 1019.74 1019.83 1019.98 1019.86 1019.74 1019.62 1019.66 1019.71 1019.47 1019.62 1019.95
1013.39 1013.22 1013.03 1012.98 1013.18 1013.39 1013.51 1013.74 1013.98 1014.15 1014.34 1014.62 1014.83 1015.07 1015.30 1015.47 1015.62 1015.74 1015.95 1016.15 1016.39 1016.62 1016.83 1017.03 1017.27 1017.30 1017.47 1017.51 1017.54 1017.71 1017.95 1018.07 1018.10 1018.10 1018.18 1018.30 1018.42 1018.59 1018.74 1018.86 1019.07 1019.22 1019.39 1019.39 1019.51 1019.74 1019.78 1019.86 1019.86 1019.83 1019.86 1019.91 1020.03 1020.10 1020.07 1019.91 1019.83 1019.83 1019.71 1019.62 1019.62 1019.98
Wind_Speed
8 9 7 7 7 7 8 11 10 11 13 13 12 13 12 13 12 10 9 10 9 7 6 7 6 7 9 6 7 10 9 9 9 8 8 8 7 5 4 3 2 4 4 5 5 5 5 4 5 5 5 4 5 5 5 0 4 9 8 7 8 7
6 8 6 5 5 5 7 8 8 8 8 10 11 11 10 8 9 5 7 4 4 5 4 5 5 8 4 7 8 9 9 9 8 7 7 7 6 4 2 2 3 4 4 4 6 2 3 5 6 6 5 3 3 4 4 4 5 8 9 7 7 6
5 7 6 6 5 6 7 6 8 7 7 8 9 9 7 8 3 4 3 5 3 3 4 3 2 5 5 7 7 8 8 8 8 7 6 6 6 5 3 3 5 5 5 6 4 4 4 4 4 7 4 2 4 4 1 4 4 10 8 7 6 9
9 7 8 4 5 5 5 5 5 5 5 5 6 6 8 8 4 4 3 5 3 2 4 3 4 7 9 5 5 6 7 7 7 7 7 4 4 4 3 4 6 6 4 3 4 5 6 6 4 4 3 3 4 3 2 5 6 7 7 8 7 10
9 8 7 5 6 5 5 5 5 5 5 5 5 5 10 8 8 8 5 5 4 3 4 2 2 2 3 2 3 3 3 3 3 4 6 1 1 2 3 3 3 3 2 4 5 6 4 1 6 5 5 6 4 3 5 4 4 7 7 6 6 9
11 7 8 6 7 7 7 6 6 5 5 3 3 8 9 7 6 2 6 5 3 3 3 2 2 2 3 2 2 2 2 2 0 1 5 1 0 2 2 2 2 1 3 4 4 6 3 2 4 1 1 3 9 7 6 3 5 7 7 6 6 10
9 9 10 9 7 7 6 5 5 5 5 4 3 8 7 5 3 4 4 5 5 4 3 3 4 2 2 1 1 0 2 1 0 1 2 1 1 3 0 2 1 2 4 6 7 9 3 1 5 7 5 9 7 4 3 3 3 6 6 7 7 11
10 11 10 9 8 7 7 6 5 5 4 6 6 6 5 4 4 4 4 4 3 2 3 3 4 4 3 1 1 1 1 2 1 0 1 1 0 1 1 1 2 3 3 4 9 3 1 10 3 2 8 4 7 5 4 2 1 6 6 5 6 8
12 11 9 8 7 5 6 5 5 4 3 6 5 5 6 6 5 4 4 4 5 3 2 1 3 3 3 2 2 3 1 1 1 2 3 2 1 0 0 0 0 1 2 3 6 6 2 6 6 4 4 4 5 2 2 3 2 4 6 6 5 7
12 9 9 7 6 6 6 5 5 5 3 5 5 5 5 5 5 5 4 5 4 4 3 2 2 3 3 1 4 3 2 3 4 3 2 1 2 1 0 1 2 2 2 2 3 6 2 6 5 5 3 3 7 3 3 1 2 2 5 5 5 5
8 9 10 9 6 7 7 6 6 4 4 4 5 5 4 4 4 4 4 4 5 3 4 2 1 5 2 5 4 3 4 3 1 2 1 2 1 1 2 1 1 3 1 3 3 5 7 4 3 3 1 5 3 3 3 3 3 3 4 5 5 4
6 6 5 7 6 7 7 6 6 5 4 4 4 4 4 4 4 3 3 1 4 2 3 3 3 6 4 3 5 4 3 4 1 1 2 3 2 2 1 1 1 0 1 1 4 1 7 10 8 7 4 2 2 4 4 5 4 3 3 3 5 4
9 8 6 7 6 6 7 7 5 4 2 5 4 3 4 3 4 4 3 2 5 4 1 2 3 2 6 6 4 5 4 4 1 1 1 1 2 2 1 1 1 1 2 3 1 6 8 8 1 4 4 3 1 3 4 5 4 4 2 0 1 6
14 14 9 5 5 6 7 7 6 5 5 5 3 3 3 3 5 5 4 3 2 4 2 2 2 3 2 2 3 1 3 3 3 1 1 1 1 1 1 1 1 1 3 5 2 7 7 4 2 4 4 2 4 4 4 5 6 3 1 1 2 3
9 13 14 10 7 6 7 7 7 6 5 4 3 3 3 3 5 3 4 3 2 3 4 1 1 1 1 2 2 2 2 3 3 2 2 1 1 3 1 1 1 2 3 3 5 6 10 3 0 2 1 2 2 2 3 9 6 2 1 2 0 5
10 9 9 10 8 7 6 5 5 5 4 4 4 3 3 2 4 5 3 2 3 3 3 3 1 1 4 3 2 1 3 2 4 0 0 1 0 2 1 0 1 2 2 3 5 6 10 4 3 2 0 1 2 2 2 3 9 6 4 1 4 5
11 10 8 9 8 7 6 6 6 5 5 5 4 4 3 3 4 4 6 4 3 4 4 4 3 2 3 5 5 2 3 3 2 4 0 1 0 2 2 0 2 2 3 3 6 8 6 4 6 2 2 0 1 2 2 1 2 5 7 5 3 8
9 8 8 7 6 6 5 5 4 3 5 6 6 4 3 3 2 2 4 4 5 6 6 7 5 4 2 1 1 3 4 3 3 2 1 1 1 2 2 0 3 2 3 3 6 5 5 4 5 3 1 1 2 1 0 0 1 2 3 0 2 10
7 7 7 7 6 6 7 4 3 2 2 1 1 2 2 2 4 5 4 6 6 6 3 5 5 4 4 2 2 5 4 4 3 2 0 1 3 1 2 1 2 3 4 4 5 6 4 1 5 1 2 2 0 0 1 3 0 3 3 3 5 8
3 3 8 7 6 6 3 4 4 2 1 4 7 6 7 5 3 5 4 3 3 5 9 6 6 5 3 2 2 3 3 7 5 5 3 2 3 2 3 4 3 3 4 5 5 4 3 3 1 2 2 2 1 2 2 2 1 2 3 2 5 7
3 2 2 5 5 6 4 5 3 3 6 4 5 3 4 4 5 4 3 5 4 3 5 6 6 5 5 3 3 3 4 3 4 4 3 2 2 3 2 3 4 4 4 4 4 3 1 0 1 3 1 2 2 2 1 4 3 2 0 0 4 9
5 2 3 3 3 5 4 6 8 7 4 4 5 5 4 4 5 4 4 4 3 5 4 4 4 5 4 4 3 3 4 5 3 3 2 4 5 3 4 3 3 4 3 4 3 2 0 1 0 1 2 1 1 1 3 3 3 1 1 3 4 4
6 8 3 1 4 8 8 4 4 3 7 7 6 5 4 3 6 5 3 4 3 4 6 4 2 5 5 4 4 2 3 4 3 5 3 2 3 3 3 5 4 5 4 2 1 1 2 1 1 3 1 1 1 1 1 2 2 1 2 1 3 4
9 8 6 5 3 3 10 9 10 9 8 6 5 4 4 4 3 5 5 5 3 3 7 6 4 3 4 4 3 3 3 3 4 3 3 4 4 3 3 4 5 5 5 4 0 1 2 1 2 4 2 2 1 1 2 0 0 0 1 1 2 2
6 6 6 5 10 11 6 8 7 7 6 5 4 4 3 3 3 3 5 4 4 2 4 6 5 4 7 6 4 2 2 2 3 3 1 1 1 2 3 3 5 5 5 4 3 3 2 1 3 1 1 2 1 1 1 3 2 1 1 1 4 3
6 7 6 6 10 4 2 6 6 6 6 5 5 5 5 5 3 1 5 3 4 5 5 2 4 6 7 7 3 3 4 3 2 4 4 3 3 2 3 3 3 4 6 5 5 3 3 1 3 2 3 2 1 1 3 5 3 2 1 2 3 4
7 5 6 5 5 3 3 4 5 5 5 6 6 5 4 3 5 5 3 4 4 2 5 3 3 4 3 5 7 6 4 4 4 5 5 2 2 2 2 3 6 5 3 5 6 5 6 3 1 3 2 2 3 3 2 3 2 3 3 3 6 8
6 7 6 6 4 3 6 4 5 5 5 6 5 5 5 5 4 5 3 2 5 3 3 5 2 3 3 4 2 3 3 3 5 6 5 6 5 5 6 5 5 9 9 8 9 8 7 4 4 2 2 1 2 1 4 5 3 1 3 5 5 7
9 9 8 6 6 5 7 7 6 6 6 6 6 6 5 4 5 4 3 3 5 5 6 4 4 2 4 3 2 3 1 1 3 2 3 9 5 4 3 5 3 4 7 6 4 4 4 6 3 3 3 1 1 2 3 3 2 2 2 6 5 5
10 7 6 5 5 8 8 7 5 4 5 6 5 5 5 5 5 3 4 3 2 4 4 2 1 3 1 5 3 1 4 3 4 4 6 7 6 4 3 3 5 3 5 4 3 4 4 3 3 2 2 2 2 1 3 3 1 1 2 0 7 6
8 7 6 6 8 9 8 6 5 4 5 6 6 7 5 5 4 3 4 3 1 4 3 5 3 3 4 5 4 3 0 4 4 5 4 5 5 5 4 2 3 3 4 4 3 4 3 2 7 6 5 2 3 3 5 4 5 3 2 2 6 7
10 9 9 9 9 9 8 8 5 5 6 5 5 5 5 5 4 4 4 3 4 3 4 3 2 4 3 3 3 2 2 4 3 2 2 2 3 6 2 2 3 3 4 3 3 3 2 3 6 5 6 6 6 6 6 5 6 4 5 5 7 7
14 12 11 10 10 9 8 8 7 6 6 5 4 5 5 4 3 4 3 4 4 4 3 3 3 4 2 1 3 1 2 5 5 5 4 4 5 5 4 4 5 5 5 5 4 4 4 3 2 4 5 3 4 6 5 6 6 8 7 6 7 7
13 11 10 9 9 9 8 7 7 7 6 6 3 4 4 4 2 4 4 4 2 4 3 4 4 3 2 2 3 4 5 4 5 3 3 2 3 3 7 6 4 6 5 4 6 5 5 3 1 0 1 3 3 3 2 1 2 3 3 2 1 5
9 9 10 10 9 9 8 8 6 6 6 5 5 4 5 5 3 5 4 2 3 3 5 4 4 3 4 5 4 3 4 3 3 3 3 2 4 5 4 4 3 3 4 3 4 4 4 4 4 4 3 5 5 6 2 2 6 6 1 1 4 7
9 9 10 10 9 8 8 8 7 7 6 5 4 4 6 5 4 4 4 3 3 4 5 5 4 4 3 4 4 3 3 3 3 3 2 2 3 4 4 4 4 5 6 5 6 6 4 4 3 4 4 4 5 5 5 5 3 6 4 5 5 6
7 6 8 8 8 7 7 7 7 6 6 5 4 5 5 5 5 4 3 3 4 6 6 5 4 3 3 3 2 4 4 4 3 3 5 5 4 3 4 3 4 5 6 5 5 5 4 4 3 4 5 5 4 4 4 5 5 5 6 6 5 4
Wind_Direction
123 129 131 138 134 128 132 128 120 127 126 122 118 120 117 119 112 116 127 131 123 113 112 124 136 136 144 137 120 131 139 145 144 141 135 133 133 136 155 175 209 221 189 205 199 194 201 199 200 219 239 255 298 297 273 173 65 100 95 100 100 100
137 129 138 134 136 134 142 144 140 134 132 125 126 125 122 120 119 135 136 103 63 101 130 131 146 141 122 125 133 140 146 145 148 142 138 136 138 145 160 208 242 247 238 224 223 215 220 214 209 209 226 231 271 277 331 28 30 93 95 94 99 105
151 135 147 144 144 146 154 151 148 143 134 138 138 132 138 117 37 158 158 93 63 36 99 114 127 149 143 122 132 145 142 149 146 152 153 149 148 155 182 244 258 269 269 264 249 245 224 187 196 203 201 223 242 256 245 77 50 76 88 91 92 104
139 167 154 163 143 141 151 149 139 138 138 140 141 149 127 95 177 205 147 97 89 71 92 41 120 129 127 116 127 138 140 141 157 161 166 162 162 165 182 243 268 278 285 261 240 238 235 170 181 160 199 208 223 221 92 52 54 89 95 101 97 101
157 177 157 168 137 142 148 138 146 141 146 150 154 141 90 126 194 191 141 110 131 124 103 116 125 119 38 87 131 148 144 165 172 186 180 199 179 182 181 220 210 197 241 256 244 245 247 119 167 175 184 202 181 64 49 58 46 88 88 91 92 94
168 167 160 158 150 150 151 151 159 143 150 132 143 98 119 158 201 144 97 131 111 82 113 104 144 116 122 98 77 36 53 310 249 251 168 78 334 305 216 283 342 297 220 234 263 287 254 124 270 174 180 116 48 19 64 60 83 108 105 106 100 96
159 164 162 156 152 154 158 149 150 151 142 138 129 121 143 171 146 108 138 121 125 145 132 153 116 97 100 84 107 25 123 236 318 359 35 110 214 214 242 47 353 340 340 319 294 255 173 42 20 43 360 40 95 118 51 9 19 94 100 99 101 105
164 164 161 154 155 161 150 149 140 143 149 136 161 121 124 134 124 134 135 121 124 131 145 154 144 144 133 175 120 200 220 167 146 342 71 123 298 347 82 6 30 341 325 314 292 304 305 91 30 197 91 122 117 128 169 106 12 99 108 112 111 113
168 167 131 147 159 154 131 131 125 126 149 153 121 118 130 130 132 134 155 151 150 147 160 184 153 142 140 139 202 152 225 203 185 174 176 151 191 227 29 115 90 344 299 293 299 280 266 111 149 37 106 139 117 94 73 69 51 119 120 127 128 124
166 138 134 148 173 130 133 144 135 152 160 128 116 122 133 140 146 149 162 178 154 152 150 159 181 149 116 59 339 316 220 218 205 166 182 174 144 136 203 152 178 212 219 249 305 278 51 21 95 132 208 135 103 144 131 155 100 44 105 117 116 119
149 127 148 163 145 128 148 144 146 147 112 104 116 140 155 151 148 142 154 173 142 156 137 117 153 80 276 128 203 245 282 284 176 185 162 134 139 163 175 210 175 189 239 296 267 286 82 91 12 7 19 54 82 114 111 95 78 66 70 102 124 140
144 125 145 131 125 137 142 142 132 113 132 123 154 160 148 133 110 115 123 130 107 178 160 142 179 133 204 145 198 207 202 267 257 175 180 147 164 161 169 159 224 275 297 290 261 4 65 67 10 343 331 124 148 132 136 132 118 104 91 109 131 134
144 136 172 140 144 145 136 135 102 111 117 146 173 148 130 130 116 122 148 198 150 151 35 152 176 176 170 169 197 219 167 240 255 216 172 148 129 120 104 114 33 5 319 298 119 67 45 77 185 278 345 340 327 94 117 97 113 103 72 9 153 146
149 146 156 134 150 150 130 119 131 152 164 163 155 135 120 136 141 155 169 155 118 95 68 288 191 153 273 39 92 86 187 214 223 234 104 150 120 122 75 65 88 43 360 10 352 107 100 92 251 35 329 306 53 20 71 56 43 46 95 251 277 129
132 137 138 151 167 142 127 139 149 154 155 131 122 135 150 154 149 132 114 125 129 130 167 171 338 127 93 52 207 185 60 7 295 173 188 166 138 89 69 29 9 58 29 39 9 29 72 73 346 115 282 356 52 48 41 114 121 330 327 208 114 23
113 111 118 138 133 124 125 114 123 139 123 130 140 148 146 156 118 141 121 128 173 127 108 163 196 203 118 195 307 189 120 161 290 123 326 123 157 120 68 13 17 69 69 41 42 45 67 34 311 258 85 354 42 65 59 75 128 161 252 308 120 131
117 116 117 110 119 118 116 127 136 135 146 142 144 154 162 195 169 148 138 177 159 160 175 128 190 164 186 158 188 119 126 126 12 332 281 128 156 75 111 59 66 29 72 85 64 55 67 99 272 265 120 3 352 45 52 65 101 145 173 178 146 109
111 122 119 112 113 111 120 123 112 145 165 161 170 173 157 150 144 163 151 156 176 179 165 165 181 181 114 147 74 101 72 93 154 299 332 215 112 116 98 197 103 45 76 96 92 88 100 133 264 261 111 57 360 344 138 256 196 122 87 47 101 97
113 125 114 105 101 106 111 102 127 133 109 141 127 142 164 158 189 169 150 165 182 143 131 130 156 146 137 181 162 105 155 119 60 326 354 286 157 122 124 99 95 108 73 71 78 60 67 252 231 257 68 98 102 286 256 260 335 136 132 185 121 99
66 111 101 101 93 75 87 105 100 95 151 208 194 170 160 166 127 96 101 99 132 145 151 159 164 142 134 105 106 111 108 119 136 209 202 202 148 164 164 139 118 98 92 103 97 104 107 218 126 72 8 43 17 341 26 301 61 360 100 79 96 109
351 27 108 97 120 120 102 62 1 217 188 163 102 111 90 75 84 57 88 123 131 102 107 151 145 144 147 143 152 141 123 112 148 178 170 206 153 160 154 114 112 80 85 79 75 98 88 181 111 47 355 6 354 354 7 25 22 162 50 103 90 144
166 109 4 71 109 96 120 156 194 201 138 134 147 129 108 104 94 106 102 93 95 116 114 128 143 130 136 144 143 161 121 99 134 185 195 215 159 159 121 105 104 95 73 80 91 100 101 162 254 116 146 128 29 44 26 353 10 318 118 135 102 98
118 133 131 299 237 164 163 191 249 79 92 73 50 56 91 117 122 110 108 105 95 113 130 113 94 124 121 127 163 110 116 154 169 169 180 163 163 145 124 124 115 116 95 88 188 158 100 11 122 108 328 51 217 127 20 23 321 311 108 260 147 149
167 153 141 120 345 170 123 122 82 71 75 85 97 83 67 47 106 127 94 93 104 108 104 129 129 132 94 131 152 151 160 138 130 188 169 170 158 155 137 126 121 109 118 120 342 15 89 287 274 160 145 186 196 113 94 12 355 305 159 217 139 155
83 66 66 61 77 329 62 87 97 99 108 113 114 132 109 87 50 82 125 115 119 132 110 105 107 124 130 136 149 150 140 142 134 123 111 123 154 152 148 149 130 128 112 107 68 6 7 243 248 284 164 116 66 322 203 135 182 82 301 184 110 71
124 119 118 150 129 186 179 119 128 125 132 141 140 127 130 146 155 94 77 85 65 72 75 88 117 109 116 129 132 154 168 160 147 137 157 165 144 173 167 160 125 124 124 125 124 169 268 355 303 306 286 327 344 224 145 160 174 149 256 32 88 92
132 133 149 159 141 153 131 130 135 133 117 110 100 93 98 73 95 114 92 85 90 64 112 78 87 115 99 131 149 167 183 179 167 163 154 149 166 166 169 184 143 125 147 128 160 163 216 176 214 258 238 313 311 276 98 128 134 124 85 26 54 53
134 148 167 169 135 169 120 108 83 78 87 97 110 119 95 80 84 83 86 98 142 151 98 116 116 86 133 98 108 151 159 175 173 179 169 177 174 184 177 202 167 161 161 186 179 180 169 173 183 206 126 204 273 58 79 63 64 86 112 113 63 49
153 163 179 159 161 132 111 110 115 118 125 132 126 127 126 105 77 71 88 44 39 64 59 36 89 109 71 108 97 57 1 70 328 25 217 171 174 143 132 122 122 143 154 162 133 126 143 174 192 165 136 251 121 76 83 67 70 129 157 136 123 110
157 152 149 172 154 119 106 103 117 144 123 116 115 100 106 118 112 134 79 69 81 68 106 120 37 56 121 84 36 68 71 33 12 32 25 48 59 63 77 124 131 158 102 113 140 138 162 176 111 79 113 86 59 134 66 47 5 243 278 302 131 135
132 137 145 151 128 123 124 123 133 130 111 108 110 113 112 118 134 114 119 111 110 104 83 73 48 47 39 72 59 48 6 80 49 6 28 63 66 65 32 33 99 107 112 111 122 122 165 135 117 140 130 142 151 159 169 169 194 197 150 173 125 142
143 144 149 147 136 133 133 132 136 115 106 107 113 116 128 117 130 128 115 127 86 98 98 100 87 84 47 57 89 69 26 73 73 87 77 81 114 117 113 79 75 95 91 103 110 99 79 89 108 125 161 177 182 177 185 172 193 192 195 164 146 151
153 156 155 150 137 135 133 141 145 130 122 115 124 129 112 117 111 109 129 114 140 113 114 129 107 92 76 110 113 141 75 94 67 28 45 57 39 60 75 67 39 40 67 64 58 83 92 87 163 159 167 185 186 171 181 211 191 196 205 179 149 142
151 153 146 137 133 135 140 141 137 132 127 124 121 106 122 121 131 114 97 105 126 114 118 105 106 91 142 115 74 65 59 58 90 76 28 48 105 117 101 94 102 117 113 122 118 127 137 162 187 125 88 102 107 112 85 13 36 33 111 126 152 120
138 148 140 135 136 140 141 142 137 135 143 136 134 151 138 126 114 102 108 142 86 91 100 102 88 75 59 60 66 59 77 73 59 93 96 55 72 79 92 108 115 124 116 110 88 73 57 66 60 58 62 73 62 50 1 347 41 353 299 148 120 120
150 151 141 138 139 143 146 139 136 141 141 131 134 127 109 113 96 100 106 104 98 99 96 84 80 91 75 75 84 114 108 94 117 125 135 116 77 78 90 95 101 98 100 101 100 89 88 72 51 39 51 50 49 39 19 17 34 33 347 64 83 85
132 134 133 135 140 143 138 133 134 139 133 130 135 117 114 109 106 98 95 99 103 98 93 91 97 97 105 114 105 85 74 74 50 51 60 66 87 85 77 78 73 69 67 70 82 91 86 78 81 98 105 104 94 69 40 24 28 13 15 28 49 57